Change the Weather History Date:

Friday, June 28, 2013

  Actual Average Record
Temperature  
Mean Temperature 88 °F 74 °F  
Max Temperature 105 °F 88 °F 105 °F (2013)
Min Temperature 71 °F 61 °F 40 °F (1945)
Degree Days  
Heating Degree Days 0 0  
Month to date heating degree days 4 44  
Since 1 June heating degree days 4 44  
Since 1 July heating degree days 5460 5605  
Cooling Degree Days 23 10  
Month to date cooling degree days 273 167  
Year to date cooling degree days 343 217  
Since 1 June cooling degree days 273 167  
Growing Degree Days 38 (Base 50)    
Moisture  
Dew Point 49 °F    
Average Humidity 32    
Maximum Humidity 49    
Minimum Humidity 15    
Precipitation  
Precipitation 0.00 in 0.02 in 0.87 in (1906)
Month to date precipitation T 0.95  
Year to date precipitation 6.12 9.18  
Snow  
Snow 0.00 in 0.00 in - ()
Month to date snowfall 0.0 0.0  
Since 1 July snowfall 69.9 56.2  
Snow Depth 0.00 in    
Sea Level Pressure  
Sea Level Pressure 29.94 in    
Wind  
Wind Speed 4 mph (NNW)    
Max Wind Speed 16 mph    
Max Gust Speed 21 mph    
Visibility 10 miles    
Events      
T = Trace of Precipitation, MM = Missing Value Source: NWS Daily Summary

Daily Weather History Graph

Daily Weather History Graph

Search for Another Location

Airport or City:

Trip Planner

Search our weather history database for the weather conditions in past years. The results will help you decide how hot, cold, wet, or windy it might be!

Date:

Astronomy

Jun. 28, 2013 Rise Set
Actual Time 5:58 AM MDT 9:03 PM MDT
Civil Twilight 5:25 AM MDT 9:36 PM MDT
Nautical Twilight 4:43 AM MDT 10:19 PM MDT
Astronomical Twilight 3:52 AM MDT 11:09 PM MDT
Moon 12:00 AM MDT (6/28) 12:13 PM MDT (6/28)
Length of Visible Light 16h 11m
Length of Day
15h 04m
Waning Gibbous, 65% of the Moon is Illuminated
Jun 28
Waning Gibbous
Jun 29
Last Quarter
Jul 8
New
Jul 15
First Quarter
Jul 22
Full

Hourly Weather History & Observations

Time (MDT) Temp. Heat Index Dew Point Humidity Pressure Visibility Wind Dir Wind Speed Gust Speed Precip Events Conditions
12:53 AM 80.1 °F - 50.0 °F 35% 29.96 in 10.0 mi NNW 8.1 mph - N/A   Scattered Clouds
1:53 AM 78.1 °F - 51.1 °F 39% 29.96 in 10.0 mi Calm Calm - N/A   Scattered Clouds
2:53 AM 73.9 °F - 51.1 °F 45% 29.97 in 10.0 mi SSW 4.6 mph - N/A   Partly Cloudy
3:53 AM 75.0 °F - 48.9 °F 40% 29.97 in 10.0 mi Calm Calm - N/A   Partly Cloudy
4:53 AM 75.0 °F - 51.1 °F 43% 29.97 in 10.0 mi Calm Calm - N/A   Partly Cloudy
5:53 AM 73.0 °F - 52.0 °F 48% 29.99 in 10.0 mi Calm Calm - N/A   Scattered Clouds
6:53 AM 75.0 °F - 54.0 °F 48% 29.99 in 10.0 mi Calm Calm - N/A   Scattered Clouds
7:53 AM 80.1 °F 80.0 °F 54.0 °F 40% 30.00 in 10.0 mi Calm Calm - N/A   Scattered Clouds
8:53 AM 84.9 °F 83.2 °F 53.1 °F 33% 30.01 in 10.0 mi Calm Calm - N/A   Scattered Clouds
9:53 AM 88.0 °F - 50.0 °F 27% 30.00 in 10.0 mi Calm Calm - N/A   Scattered Clouds
10:53 AM 91.0 °F 88.5 °F 53.1 °F 27% 30.00 in 10.0 mi Calm Calm - N/A   Scattered Clouds
11:53 AM 95.0 °F - 50.0 °F 22% 29.99 in 10.0 mi West 4.6 mph - N/A   Scattered Clouds
12:53 PM 97.0 °F - 48.9 °F 19% 29.98 in 10.0 mi NNW 9.2 mph - N/A   Scattered Clouds
1:53 PM 99.0 °F - 48.0 °F 18% 29.96 in 10.0 mi NW 8.1 mph - N/A   Scattered Clouds
2:53 PM 100.9 °F - 48.9 °F 17% 29.94 in 10.0 mi NNW 10.4 mph - N/A   Scattered Clouds
3:53 PM 102.9 °F - 46.9 °F 15% 29.91 in 10.0 mi NNW 12.7 mph 18.4 mph N/A   Scattered Clouds
4:53 PM 102.9 °F - 46.0 °F 15% 29.89 in 10.0 mi NNW 11.5 mph - N/A   Scattered Clouds
5:53 PM 104.0 °F - 44.1 °F 13% 29.87 in 10.0 mi NNE 11.5 mph - N/A   Scattered Clouds
6:53 PM 100.9 °F - 39.0 °F 12% 29.86 in 10.0 mi North 12.7 mph - N/A   Mostly Cloudy
7:53 PM 100.0 °F - 43.0 °F 14% 29.86 in 10.0 mi NNW 11.5 mph - N/A   Mostly Cloudy
8:53 PM 91.9 °F - 48.0 °F 22% 29.86 in 10.0 mi North 6.9 mph - N/A   Mostly Cloudy
9:53 PM 90.0 °F - 46.9 °F 23% 29.88 in 10.0 mi SSE 3.5 mph - N/A   Mostly Cloudy
10:53 PM 89.1 °F - 46.0 °F 22% 29.88 in 10.0 mi SE 10.4 mph - N/A   Mostly Cloudy
11:53 PM 84.9 °F - 48.0 °F 28% 29.89 in 10.0 mi SE 5.8 mph - N/A   Mostly Cloudy